#timestamp,LO_Frequency,Hit,StdDev 
1552554015.4,286046999.3,N
1552554035.2,286046999.4,N
1552554055.1,286046999.6,N
1552554056.0,286046999.6,N
1552554075.8,286046999.4,N
1552554095.7,286046998.4,N
1552554115.5,286047000.2,N
1552554135.3,286047000.2,N
1552554155.2,286047002.1,N
1552554175.0,286047002.6,N
1552554175.9,286047002.6,N
1552554195.8,286047004.2,N
1552554215.6,286047003.8,N
1552554235.4,286047003.9,N
1552554255.3,286047002.1,N
1552554275.1,286047001.3,N
1552554295.8,286047002.0,N
1552554315.7,286047002.1,N
1552554335.5,286047002.3,N
1552554355.4,286046999.7,N
1552554375.2,286047000.9,N
1552554395.0,286047000.3,N
1552554395.9,286047000.3,N
1552554415.8,286047000.4,N
1552554435.6,286047004.2,N
1552554455.5,286047004.1,N
1552554475.3,286047004.1,N
1552554495.1,286047003.0,N
1552554515.9,286047005.4,N
1552554535.7,286047005.7,N
1552554555.5,286047006.0,Y
1552554575.4,286047001.9,P
1552554595.2,286047002.2,P
1552554615.1,286047001.9,P
1552554616.0,286047001.9,Y
1552554635.8,286046998.2,P
1552554655.6,286046998.2,N
1552554675.5,286046998.8,N
1552554695.3,286046998.4,N
1552554715.2,286046998.4,N
1552554735.9,286046997.3,N
1552554755.7,286046995.3,Y
1552554775.6,286046996.9,P
1552554795.4,286046999.1,N
1552554815.2,286046999.5,N
1552554835.1,286046999.6,N
1552554836.0,286046999.6,N
1552554855.8,286046997.1,Y
1552554875.7,286046999.0,P
1552554895.5,286046999.5,P
1552554915.3,286046998.5,P
1552554935.2,286047000.8,N
1552554955.0,286046999.0,N
1552554955.9,286046999.0,N
1552554975.7,286047001.2,N
1552554995.6,286047000.7,N
1552555015.4,286046998.4,N
1552555035.3,286047000.4,N
1552555055.1,286047002.4,N
1552555056.0,286047002.4,N
1552555075.8,286047001.9,N
1552555095.7,286047002.2,N
1552555115.5,286046999.7,N
1552555135.3,286047000.3,N
1552555155.2,286047001.0,N
1552555175.0,286046998.4,N
1552555175.9,286046998.4,N
1552555195.8,286046999.4,N
1552555215.6,286046999.4,N
1552555235.4,286046997.2,N
1552555255.3,286046996.7,N
1552555275.1,286046999.3,N
1552555295.8,286047000.9,N
1552555315.7,286047000.0,N
1552555335.5,286047002.4,N
1552555355.4,286047002.0,N
1552555375.2,286047000.3,N
1552555395.0,286047001.0,N
1552555395.9,286047001.0,N
1552555415.8,286046999.4,N
1552555435.6,286046998.3,N
1552555455.4,286046998.5,N
1552555475.3,286046998.2,N
1552555495.1,286046999.1,N
1552555515.9,286046999.4,N
1552555535.7,286046998.3,N
1552555555.5,286047001.0,N
1552555575.4,286047001.1,N
1552555595.2,286047000.8,N
1552555615.0,286047000.9,N
1552555615.9,286047000.9,N
1552555635.8,286047000.8,N
1552555655.6,286047000.2,N
1552555675.5,286047000.8,N
1552555695.3,286046999.8,N
1552555715.1,286046999.3,N
1552555735.9,286046996.7,N
1552555755.7,286046996.5,N
1552555775.5,286046999.4,N
1552555795.4,286046998.4,N
1552555815.2,286047001.1,N
1552555835.0,286047000.5,N
1552555836.0,286047000.5,N
1552555855.8,286047000.2,N
1552555875.6,286046999.8,N
1552555895.5,286047000.9,N
1552555915.3,286046996.7,N
1552555935.1,286046998.7,N
1552555955.9,286047000.2,N
1552555975.7,286046999.8,N
1552555995.5,286047002.0,N
1552556015.4,286047002.8,N
1552556035.2,286046999.7,N
1552556055.1,286047002.3,N
1552556056.0,286047002.3,N
1552556075.8,286046999.9,N
1552556095.6,286047000.4,N
1552556115.5,286047002.4,N
1552556135.3,286046999.9,N
1552556155.1,286047000.4,N
1552556175.9,286046999.7,N
1552556195.7,286047002.8,N
1552556215.6,286046998.7,N
1552556235.4,286047000.8,N
1552556255.2,286047000.8,N
1552556275.1,286047000.0,N
1552556276.0,286047000.0,N
1552556295.8,286047000.4,N
1552556315.6,286047002.3,N
1552556335.5,286047002.3,N
1552556355.3,286047001.6,N
1552556375.2,286047000.0,N
1552556395.9,286047000.4,N
1552556415.7,286047000.6,N
1552556435.6,286047000.8,N
1552556455.4,286046999.9,N
1552556475.2,286047000.1,N
1552556495.1,286047002.1,N
1552556496.0,286047002.1,N
1552556515.8,286047002.5,N
1552556535.7,286047000.5,N
1552556555.5,286047002.2,N
1552556575.3,286047001.5,N
1552556595.2,286047001.6,N
1552556615.0,286047003.3,Y
1552556615.9,286047003.3,P
1552556635.7,286047003.5,N
1552556655.6,286047005.4,P
1552556675.4,286047005.5,Y
1552556695.3,286047000.4,P
1552556715.1,286046999.1,N
1552556735.8,286046996.6,N
1552556755.7,286046996.5,N
1552556775.5,286046997.0,N
1552556795.3,286046997.2,N
1552556815.2,286046995.0,N
1552556835.0,286046994.9,N
1552556835.9,286046994.9,N
1552556855.8,286046997.5,N
1552556875.6,286046997.7,N
1552556895.4,286046996.6,N
1552556915.3,286046997.8,N
1552556935.1,286046995.5,N
1552556955.9,286046997.4,N
1552556975.7,286046996.8,N
1552556995.5,286046996.8,N
1552557015.4,286046997.3,N
1552557035.2,286046996.8,N
1552557055.0,286046996.7,N
1552557085.9,286046998.0,E
1552557095.9,286046997.5,N
1552557115.7,286046998.4,P
1552557135.5,286046998.8,N
1552557155.4,286047000.7,N
1552557175.2,286047000.9,N
1552557195.1,286046999.7,N
1552557196.0,286046999.7,N
1552557215.8,286047001.2,N
1552557235.6,286047000.8,N
1552557255.5,286046998.3,N
1552557275.3,286046998.6,N
1552557295.1,286046998.5,N
1552557315.9,286047000.5,N
1552557335.7,286047002.5,N
1552557355.6,286047001.5,N
1552557375.4,286046999.7,N
1552557395.2,286046999.7,N
1552557415.1,286047003.6,N
1552557416.0,286047003.6,N
1552557435.8,286047003.2,N
1552557455.6,286047004.3,N
1552557475.5,286047003.9,N
1552557495.4,286047003.6,N
1552557515.2,286047001.9,N
1552557535.1,286047000.0,N
1552557536.0,286047000.0,N
1552557555.8,286046998.8,N
1552557575.6,286047000.8,N
1552557595.5,286046998.7,N
